Powrót do katalogu

STARLINK-5919

AktywnyŁącznośćVLEO
NORAD 55927·PAYLOAD·🇺🇸 United States

Wystrzelony Mar 17, 2023 z Vandenberg Space Force Base

Loading…

Następne Przeloty (najbliższe 24 godziny)

TLE

ŚwieżeSource: CelesTrak SupGP

Epoka: Sep 15, 2026, 02:35 UTC

1 55927C 23037P   26258.10812500 -.00010143  00000+0 -85014-3 0  2582
2 55927  70.0021 186.7402 0002551 273.9799  75.0232 14.98332576    15

Śledź STARLINK-5919 w czasie rzeczywistym z AllMySat

Download on the App Store